• Em Portugal
  • Lista de países
  • Para 7 dias
  • Temperatura da água
  • Mapas de satélite
  • Mapa do tempo
  • Widgets de tempo
  • user-avatar
    Iniciar Sessão

    Previsão horária em Barlewice

    Hoje, 17 Agosto, Sexta-feira

    Tempo Temperatura Precipitação Vento Pressão Humidade
    00:00 +19°C° 0 mm 2 m/s 759 mmHg 71%
    01:00 +18°C° 0 mm 2 m/s 759 mmHg 72%
    02:00 +18°C° 0 mm 2 m/s 759 mmHg 74%
    03:00 +18°C° 0 mm 2 m/s 759 mmHg 75%
    04:00 +17°C° 0 mm 3 m/s 759 mmHg 77%
    05:00 +18°C° 0 mm 3 m/s 759 mmHg 75%
    06:00 +20°C° 0 mm 3 m/s 759 mmHg 72%
    07:00 +21°C° 0 mm 3 m/s 759 mmHg 70%
    08:00 +22°C° 0 mm 3 m/s 759 mmHg 64%
    09:00 +25°C° 0 mm 3 m/s 759 mmHg 58%
    10:00 +27°C° 0 mm 3 m/s 759 mmHg 52%
    11:00 +27°C° 0 mm 3 m/s 759 mmHg 50%
    12:00 +28°C° 0 mm 3 m/s 758 mmHg 48%
    13:00 +28°C° 0 mm 2 m/s 758 mmHg 47%
    14:00 +28°C° 0 mm 2 m/s 758 mmHg 48%
    15:00 +28°C° 0 mm 2 m/s 758 mmHg 50%
    16:00 +27°C° 0 mm 2 m/s 757 mmHg 52%
    17:00 +26°C° 0 mm 2 m/s 757 mmHg 55%
    18:00 +25°C° 0 mm 2 m/s 757 mmHg 58%
    19:00 +24°C° 0 mm 1 m/s 757 mmHg 61%
    20:00 +24°C° 0 mm 1 m/s 757 mmHg 62%
    21:00 +23°C° 0 mm 2 m/s 757 mmHg 62%
    22:00 +23°C° 0 mm 2 m/s 757 mmHg 63%
    23:00 +23°C° 0 mm 2 m/s 757 mmHg 64%

    Amanhã, 18 Agosto, Sábado

    Tempo Temperatura Precipitação Vento Pressão Humidade
    00:00 +21°C° 0 mm 2 m/s 757 mmHg 65%
    01:00 +21°C° 0 mm 2 m/s 757 mmHg 67%
    02:00 +21°C° 0 mm 2 m/s 757 mmHg 68%
    03:00 +20°C° 0 mm 2 m/s 757 mmHg 69%
    04:00 +21°C° 0 mm 1 m/s 757 mmHg 70%
    05:00 +22°C° 0 mm 1 m/s 758 mmHg 70%
    06:00 +22°C° 0 mm 1 m/s 758 mmHg 69%
    07:00 +23°C° 0 mm 1 m/s 758 mmHg 69%
    08:00 +24°C° 0,1 mm 1 m/s 758 mmHg 65%
    09:00 +25°C° 0,1 mm 1 m/s 758 mmHg 62%
    10:00 +26°C° 0,1 mm 1 m/s 758 mmHg 58%
    11:00 +26°C° 0,8 mm 2 m/s 758 mmHg 59%
    12:00 +27°C° 0,8 mm 2 m/s 758 mmHg 60%
    13:00 +27°C° 0,8 mm 2 m/s 758 mmHg 61%
    14:00 +26°C° 0,5 mm 2 m/s 758 mmHg 62%
    15:00 +26°C° 0,5 mm 2 m/s 758 mmHg 64%
    16:00 +26°C° 0,5 mm 2 m/s 758 mmHg 65%
    17:00 +25°C° 0,2 mm 3 m/s 758 mmHg 71%
    18:00 +22°C° 0,2 mm 3 m/s 758 mmHg 77%
    19:00 +21°C° 0,2 mm 3 m/s 759 mmHg 83%
    20:00 +20°C° 0,1 mm 3 m/s 759 mmHg 85%
    21:00 +19°C° 0,1 mm 3 m/s 759 mmHg 87%
    22:00 +18°C° 0,1 mm 3 m/s 759 mmHg 88%
    23:00 +17°C° 0 mm 2 m/s 759 mmHg 87%

    Depois de amanhã, 19 Agosto, Domingo

    Tempo Temperatura Precipitação Vento Pressão Humidade
    00:00 +17°C° 0 mm 2 m/s 760 mmHg 85%
    01:00 +16°C° 0 mm 2 m/s 760 mmHg 84%
    02:00 +15°C° 0 mm 2 m/s 760 mmHg 82%
    03:00 +15°C° 0 mm 2 m/s 760 mmHg 81%
    04:00 +15°C° 0 mm 2 m/s 759 mmHg 80%
    05:00 +16°C° 0 mm 2 m/s 760 mmHg 76%
    06:00 +17°C° 0 mm 2 m/s 760 mmHg 72%
    07:00 +18°C° 0 mm 3 m/s 760 mmHg 68%
    08:00 +20°C° 0 mm 3 m/s 760 mmHg 64%
    09:00 +22°C° 0 mm 3 m/s 760 mmHg 59%
    10:00 +23°C° 0 mm 4 m/s 760 mmHg 54%
    11:00 +25°C° 0 mm 4 m/s 760 mmHg 54%
    12:00 +25°C° 0 mm 4 m/s 760 mmHg 55%
    13:00 +26°C° 0 mm 4 m/s 760 mmHg 55%
    14:00 +25°C° 0 mm 4 m/s 760 mmHg 58%
    15:00 +23°C° 0 mm 4 m/s 760 mmHg 61%
    16:00 +23°C° 0 mm 4 m/s 759 mmHg 65%
    17:00 +22°C° 0 mm 3 m/s 760 mmHg 69%
    18:00 +21°C° 0 mm 3 m/s 760 mmHg 74%
    19:00 +20°C° 0 mm 2 m/s 760 mmHg 78%
    20:00 +19°C° 0 mm 2 m/s 760 mmHg 81%
    21:00 +18°C° 0 mm 2 m/s 760 mmHg 84%
    22:00 +18°C° 0 mm 2 m/s 760 mmHg 87%
    23:00 +17°C° 0 mm 2 m/s 760 mmHg 89%

    20 Agosto, Segunda-feira

    Tempo Temperatura Precipitação Vento Pressão Humidade
    00:00 +17°C° 0 mm 2 m/s 760 mmHg 90%
    01:00 +16°C° 0 mm 2 m/s 760 mmHg 92%
    02:00 +16°C° 0 mm 2 m/s 760 mmHg 93%
    03:00 +16°C° 0 mm 2 m/s 760 mmHg 94%
    04:00 +16°C° 0 mm 2 m/s 760 mmHg 94%
    05:00 +17°C° 0 mm 2 m/s 760 mmHg 90%
    06:00 +18°C° 0 mm 2 m/s 760 mmHg 86%
    07:00 +19°C° 0 mm 2 m/s 761 mmHg 82%
    08:00 +20°C° 0 mm 2 m/s 761 mmHg 77%
    09:00 +21°C° 0 mm 2 m/s 761 mmHg 72%
    10:00 +23°C° 0 mm 2 m/s 761 mmHg 67%
    11:00 +24°C° 0,2 mm 2 m/s 761 mmHg 67%
    12:00 +24°C° 0,2 mm 2 m/s 760 mmHg 67%
    13:00 +24°C° 0,2 mm 2 m/s 760 mmHg 66%
    14:00 +24°C° 0,4 mm 2 m/s 760 mmHg 69%
    15:00 +24°C° 0,4 mm 2 m/s 760 mmHg 72%
    16:00 +23°C° 0,4 mm 1 m/s 760 mmHg 75%
    17:00 +22°C° 0,2 mm 1 m/s 760 mmHg 79%
    18:00 +21°C° 0,2 mm 1 m/s 760 mmHg 83%
    19:00 +20°C° 0,2 mm 1 m/s 760 mmHg 88%
    20:00 +20°C° 0 mm 1 m/s 760 mmHg 89%
    21:00 +20°C° 0 mm 1 m/s 760 mmHg 89%
    22:00 +19°C° 0 mm 2 m/s 759 mmHg 90%
    23:00 +19°C° 0 mm 2 m/s 759 mmHg 90%

    21 Agosto, Terça-feira

    Tempo Temperatura Precipitação Vento Pressão Humidade
    00:00 +19°C° 0 mm 2 m/s 759 mmHg 90%
    01:00 +19°C° 0 mm 2 m/s 759 mmHg 90%
    02:00 +18°C° 0,1 mm 2 m/s 759 mmHg 91%
    03:00 +18°C° 0,1 mm 2 m/s 759 mmHg 91%
    04:00 +18°C° 0,1 mm 2 m/s 758 mmHg 91%
    05:00 +19°C° 0,1 mm 2 m/s 758 mmHg 90%
    06:00 +19°C° 0,1 mm 3 m/s 758 mmHg 88%
    07:00 +19°C° 0,1 mm 3 m/s 758 mmHg 86%
    08:00 +20°C° 0,1 mm 3 m/s 758 mmHg 85%
    09:00 +20°C° 0,1 mm 3 m/s 758 mmHg 83%
    10:00 +21°C° 0,1 mm 3 m/s 758 mmHg 81%
    11:00 +24°C° 0 mm 3 m/s 758 mmHg 75%
    12:00 +25°C° 0 mm 4 m/s 758 mmHg 68%
    13:00 +27°C° 0 mm 4 m/s 758 mmHg 61%
    14:00 +27°C° 0,1 mm 4 m/s 758 mmHg 61%
    15:00 +28°C° 0,1 mm 4 m/s 757 mmHg 60%
    16:00 +28°C° 0,1 mm 4 m/s 757 mmHg 59%
    17:00 +26°C° 0,1 mm 3 m/s 757 mmHg 66%
    18:00 +25°C° 0,1 mm 2 m/s 757 mmHg 72%
    19:00 +23°C° 0,1 mm 2 m/s 757 mmHg 79%
    20:00 +22°C° 0 mm 1 m/s 757 mmHg 82%
    21:00 +22°C° 0 mm 1 m/s 757 mmHg 84%
    22:00 +21°C° 0 mm 1 m/s 758 mmHg 87%
    23:00 +21°C° 0 mm 1 m/s 758 mmHg 88%

    22 Agosto, Quarta-feira

    Tempo Temperatura Precipitação Vento Pressão Humidade
    00:00 +20°C° 0 mm 1 m/s 758 mmHg 89%
    01:00 +20°C° 0 mm 1 m/s 758 mmHg 90%
    02:00 +20°C° 0 mm 1 m/s 757 mmHg 90%
    03:00 +20°C° 0 mm 1 m/s 757 mmHg 90%
    04:00 +18°C° 0 mm 2 m/s 757 mmHg 91%
    05:00 +19°C° 0 mm 2 m/s 757 mmHg 87%
    06:00 +21°C° 0 mm 2 m/s 757 mmHg 83%
    07:00 +23°C° 0 mm 2 m/s 757 mmHg 79%
    08:00 +24°C° 0,1 mm 3 m/s 757 mmHg 73%
    09:00 +26°C° 0,1 mm 3 m/s 758 mmHg 66%
    10:00 +27°C° 0,1 mm 3 m/s 758 mmHg 60%
    11:00 +27°C° 0,2 mm 3 m/s 758 mmHg 58%
    12:00 +28°C° 0,2 mm 3 m/s 758 mmHg 57%
    13:00 +28°C° 0,2 mm 3 m/s 758 mmHg 55%
    14:00 +27°C° 0,4 mm 4 m/s 758 mmHg 62%
    15:00 +25°C° 0,4 mm 4 m/s 758 mmHg 68%
    16:00 +23°C° 0,4 mm 4 m/s 758 mmHg 75%
    17:00 +22°C° 0 mm 4 m/s 758 mmHg 78%
    18:00 +20°C° 0 mm 3 m/s 758 mmHg 81%
    19:00 +19°C° 0 mm 2 m/s 758 mmHg 84%
    20:00 +18°C° 0 mm 2 m/s 758 mmHg 85%
    21:00 +18°C° 0 mm 2 m/s 758 mmHg 86%
    22:00 +17°C° 0 mm 2 m/s 758 mmHg 87%
    23:00 +16°C° 0 mm 2 m/s 759 mmHg 87%
    Mostrar mais